Time,TemperatureF,DewpointF,PressureIn,WindDirection,WindDirectionDegrees,WindSpeedMPH,WindSpeedGustMPH,Humidity,HourlyPrecipIn,Conditions,Clouds,dailyrainin,SoftwareType,DateUTC
2013-08-11 00:08:00,73.2,67.0,30.08,NW,308,0.0,0.0,81,0.00,,,0.00,weatherlink.com 1.10,2013-08-11 04:08:00,
2013-08-11 00:23:00,73.3,68.0,30.08,NW,308,0.0,0.0,83,0.00,,,0.00,weatherlink.com 1.10,2013-08-11 04:23:00,
2013-08-11 00:38:00,73.7,68.0,30.08,NW,308,0.0,0.0,83,0.00,,,0.00,weatherlink.com 1.10,2013-08-11 04:38:00,
2013-08-11 00:53:00,73.8,68.0,30.07,NW,308,0.0,0.0,83,0.00,,,0.00,weatherlink.com 1.10,2013-08-11 04:53:00,
2013-08-11 01:08:00,73.7,69.0,30.07,NW,308,0.0,0.0,84,0.00,,,0.00,weatherlink.com 1.10,2013-08-11 05:08:00,
2013-08-11 01:38:00,73.5,68.0,30.06,NW,308,0.0,0.0,84,0.00,,,0.00,weatherlink.com 1.10,2013-08-11 05:38:00,
2013-08-11 01:53:00,73.3,68.0,30.07,NW,308,0.0,1.0,84,0.00,,,0.00,weatherlink.com 1.10,2013-08-11 05:53:00,
2013-08-11 02:08:00,73.0,68.0,30.07,NW,308,0.0,0.0,84,0.00,,,0.00,weatherlink.com 1.10,2013-08-11 06:08:00,
2013-08-11 02:23:00,72.7,68.0,30.06,NW,308,0.0,0.0,85,0.00,,,0.00,weatherlink.com 1.10,2013-08-11 06:23:00,
2013-08-11 02:38:00,72.7,68.0,30.06,NW,308,0.0,0.0,85,0.00,,,0.00,weatherlink.com 1.10,2013-08-11 06:38:00,
2013-08-11 02:53:00,72.9,68.0,30.06,NW,308,0.0,0.0,85,0.00,,,0.00,weatherlink.com 1.10,2013-08-11 06:53:00,
2013-08-11 03:08:00,72.8,68.0,30.07,NW,308,0.0,0.0,85,0.00,,,0.00,weatherlink.com 1.10,2013-08-11 07:08:00,
2013-08-11 03:23:00,72.6,68.0,30.06,NW,308,0.0,0.0,86,0.00,,,0.00,weatherlink.com 1.10,2013-08-11 07:23:00,
2013-08-11 03:38:00,72.6,68.0,30.06,NW,308,0.0,0.0,86,0.00,,,0.00,weatherlink.com 1.10,2013-08-11 07:38:00,
2013-08-11 03:53:00,72.9,69.0,30.06,NW,308,0.0,0.0,86,0.00,,,0.00,weatherlink.com 1.10,2013-08-11 07:53:00,
2013-08-11 04:24:00,72.8,68.0,30.07,NW,308,0.0,0.0,86,0.00,,,0.00,weatherlink.com 1.10,2013-08-11 08:24:00,
2013-08-11 04:38:00,72.8,68.0,30.07,NW,308,0.0,0.0,86,0.00,,,0.00,weatherlink.com 1.10,2013-08-11 08:38:00,
2013-08-11 04:53:00,72.8,68.0,30.07,NW,308,0.0,0.0,86,0.00,,,0.00,weatherlink.com 1.10,2013-08-11 08:53:00,
2013-08-11 05:23:00,72.9,69.0,30.08,NW,308,0.0,0.0,86,0.00,,,0.00,weatherlink.com 1.10,2013-08-11 09:23:00,
2013-08-11 05:38:00,72.9,69.0,30.08,NW,308,0.0,0.0,87,0.00,,,0.00,weatherlink.com 1.10,2013-08-11 09:38:00,
2013-08-11 05:53:00,73.0,69.0,30.08,NW,308,0.0,0.0,87,0.00,,,0.00,weatherlink.com 1.10,2013-08-11 09:53:00,
2013-08-11 06:08:00,73.1,69.0,30.08,NW,308,0.0,0.0,87,0.00,,,0.00,weatherlink.com 1.10,2013-08-11 10:08:00,
2013-08-11 06:23:00,73.0,69.0,30.09,NW,308,0.0,0.0,87,0.00,,,0.00,weatherlink.com 1.10,2013-08-11 10:23:00,
2013-08-11 06:38:00,72.9,69.0,30.09,NW,308,0.0,0.0,87,0.00,,,0.00,weatherlink.com 1.10,2013-08-11 10:38:00,
2013-08-11 06:53:00,73.1,69.0,30.09,NW,308,0.0,0.0,87,0.00,,,0.00,weatherlink.com 1.10,2013-08-11 10:53:00,
2013-08-11 07:23:00,73.4,70.0,30.10,NW,308,0.0,0.0,88,0.00,,,0.00,weatherlink.com 1.10,2013-08-11 11:23:00,
2013-08-11 07:38:00,73.6,70.0,30.10,NW,308,0.0,0.0,87,0.00,,,0.00,weatherlink.com 1.10,2013-08-11 11:38:00,
2013-08-11 08:08:00,74.2,70.0,30.11,NW,308,0.0,1.0,86,0.00,,,0.00,weatherlink.com 1.10,2013-08-11 12:08:00,
2013-08-11 08:23:00,74.4,70.0,30.11,NW,308,0.0,1.0,86,0.00,,,0.00,weatherlink.com 1.10,2013-08-11 12:23:00,
2013-08-11 08:39:00,74.8,70.0,30.11,NW,308,0.0,1.0,86,0.00,,,0.00,weatherlink.com 1.10,2013-08-11 12:39:00,
2013-08-11 08:54:00,75.3,71.0,30.11,NW,308,0.0,2.0,85,0.00,,,0.00,weatherlink.com 1.10,2013-08-11 12:54:00,
2013-08-11 09:09:00,76.1,71.0,30.11,NW,308,0.0,2.0,84,0.00,,,0.00,weatherlink.com 1.10,2013-08-11 13:09:00,
2013-08-11 09:24:00,76.6,72.0,30.11,NW,308,0.0,0.0,84,0.00,,,0.00,weatherlink.com 1.10,2013-08-11 13:24:00,
2013-08-11 09:39:00,76.8,71.0,30.11,NW,308,0.0,0.0,83,0.00,,,0.00,weatherlink.com 1.10,2013-08-11 13:39:00,
2013-08-11 09:54:00,77.2,71.0,30.10,NW,308,0.0,1.0,81,0.00,,,0.00,weatherlink.com 1.10,2013-08-11 13:54:00,
2013-08-11 10:09:00,78.3,72.0,30.10,NW,308,0.0,1.0,81,0.00,,,0.00,weatherlink.com 1.10,2013-08-11 14:09:00,
2013-08-11 10:24:00,78.6,71.0,30.10,NNW,344,0.0,2.0,78,0.00,,,0.00,weatherlink.com 1.10,2013-08-11 14:24:00,
2013-08-11 10:39:00,79.3,70.0,30.11,WNW,286,0.0,2.0,74,0.00,,,0.00,weatherlink.com 1.10,2013-08-11 14:39:00,
2013-08-11 10:54:00,80.1,71.0,30.11,WNW,295,0.0,2.0,73,0.00,,,0.00,weatherlink.com 1.10,2013-08-11 14:54:00,
2013-08-11 11:09:00,80.1,68.0,30.11,NW,310,0.0,4.0,67,0.00,,,0.00,weatherlink.com 1.10,2013-08-11 15:09:00,
2013-08-11 11:24:00,80.9,67.0,30.10,WNW,299,0.0,4.0,63,0.00,,,0.00,weatherlink.com 1.10,2013-08-11 15:24:00,
2013-08-11 12:09:00,80.6,70.0,30.09,NNW,343,0.0,1.0,69,0.00,,,0.00,weatherlink.com 1.10,2013-08-11 16:09:00,
2013-08-11 12:39:00,81.8,71.0,30.09,ESE,111,0.0,2.0,69,0.00,,,0.00,weatherlink.com 1.10,2013-08-11 16:39:00,
2013-08-11 13:09:00,81.6,69.0,30.08,ESE,110,0.0,5.0,65,0.00,,,0.00,weatherlink.com 1.10,2013-08-11 17:09:00,
2013-08-11 13:24:00,81.5,70.0,30.08,ESE,110,0.0,2.0,68,0.00,,,0.00,weatherlink.com 1.10,2013-08-11 17:24:00,
2013-08-11 13:39:00,81.9,70.0,30.08,ESE,109,0.0,2.0,68,0.00,,,0.00,weatherlink.com 1.10,2013-08-11 17:39:00,
2013-08-11 13:54:00,83.5,70.0,30.08,SE,144,0.0,4.0,64,0.00,,,0.00,weatherlink.com 1.10,2013-08-11 17:54:00,
2013-08-11 14:24:00,84.0,69.0,30.07,East,82,0.0,6.0,60,0.00,,,0.00,weatherlink.com 1.10,2013-08-11 18:24:00,
2013-08-11 14:39:00,84.0,69.0,30.07,ENE,71,0.0,5.0,61,0.00,,,0.00,weatherlink.com 1.10,2013-08-11 18:39:00,
2013-08-11 14:54:00,83.7,71.0,30.06,East,99,1.0,4.0,65,0.00,,,0.00,weatherlink.com 1.10,2013-08-11 18:54:00,
2013-08-11 15:09:00,83.7,68.0,30.05,ENE,74,0.0,2.0,60,0.00,,,0.00,weatherlink.com 1.10,2013-08-11 19:09:00,
2013-08-11 15:54:00,84.3,70.0,30.05,ESE,115,0.0,7.0,63,0.00,,,0.00,weatherlink.com 1.10,2013-08-11 19:54:00,
2013-08-11 16:09:00,84.0,67.0,30.04,ENE,72,0.0,1.0,57,0.00,,,0.00,weatherlink.com 1.10,2013-08-11 20:09:00,
2013-08-11 16:24:00,84.1,70.0,30.04,SE,126,1.0,4.0,62,0.00,,,0.00,weatherlink.com 1.10,2013-08-11 20:24:00,
2013-08-11 16:54:00,85.0,69.0,30.03,East,79,0.0,1.0,58,0.00,,,0.00,weatherlink.com 1.10,2013-08-11 20:54:00,
2013-08-11 17:09:00,85.5,70.0,30.03,ESE,111,0.0,5.0,60,0.00,,,0.00,weatherlink.com 1.10,2013-08-11 21:09:00,
2013-08-11 17:54:00,83.8,70.0,30.03,ESE,123,0.0,1.0,63,0.00,,,0.00,weatherlink.com 1.10,2013-08-11 21:54:00,
2013-08-11 18:09:00,83.3,68.0,30.02,ESE,123,0.0,1.0,60,0.00,,,0.00,weatherlink.com 1.10,2013-08-11 22:09:00,
2013-08-11 18:25:00,84.1,68.0,30.02,ESE,122,0.0,4.0,59,0.00,,,0.00,weatherlink.com 1.10,2013-08-11 22:25:00,
2013-08-11 18:40:00,83.3,68.0,30.01,ESE,119,0.0,2.0,61,0.00,,,0.00,weatherlink.com 1.10,2013-08-11 22:40:00,
2013-08-11 18:55:00,83.4,69.0,30.01,ESE,119,0.0,1.0,62,0.00,,,0.00,weatherlink.com 1.10,2013-08-11 22:55:00,
2013-08-11 19:25:00,81.7,70.0,30.01,ESE,119,0.0,1.0,68,0.00,,,0.00,weatherlink.com 1.10,2013-08-11 23:25:00,
2013-08-11 19:40:00,80.8,71.0,30.02,ESE,119,0.0,1.0,71,0.00,,,0.00,weatherlink.com 1.10,2013-08-11 23:40:00,
2013-08-11 19:55:00,80.4,70.0,30.02,ESE,119,0.0,0.0,71,0.00,,,0.00,weatherlink.com 1.10,2013-08-11 23:55:00,
2013-08-11 20:25:00,79.8,71.0,30.03,ESE,119,0.0,0.0,74,0.00,,,0.00,weatherlink.com 1.10,2013-08-12 00:25:00,
2013-08-11 20:40:00,79.4,71.0,30.03,ESE,119,0.0,2.0,76,0.00,,,0.00,weatherlink.com 1.10,2013-08-12 00:40:00,
2013-08-11 20:55:00,79.1,71.0,30.03,ESE,119,0.0,1.0,75,0.00,,,0.00,weatherlink.com 1.10,2013-08-12 00:55:00,
2013-08-11 21:10:00,78.5,69.0,30.04,ESE,119,0.0,1.0,72,0.00,,,0.00,weatherlink.com 1.10,2013-08-12 01:10:00,
2013-08-11 21:25:00,78.2,68.0,30.04,ESE,121,0.0,4.0,70,0.00,,,0.00,weatherlink.com 1.10,2013-08-12 01:25:00,
2013-08-11 21:40:00,77.8,67.0,30.04,ESE,121,0.0,0.0,70,0.00,,,0.00,weatherlink.com 1.10,2013-08-12 01:40:00,
2013-08-11 21:55:00,77.5,68.0,30.04,ENE,75,0.0,1.0,72,0.00,,,0.00,weatherlink.com 1.10,2013-08-12 01:55:00,
2013-08-11 22:10:00,77.0,68.0,30.03,ENE,75,0.0,0.0,74,0.00,,,0.00,weatherlink.com 1.10,2013-08-12 02:10:00,
2013-08-11 22:25:00,76.8,68.0,30.03,ENE,75,0.0,0.0,75,0.00,,,0.00,weatherlink.com 1.10,2013-08-12 02:25:00,
2013-08-11 22:55:00,76.3,68.0,30.03,ENE,75,0.0,0.0,76,0.00,,,0.00,weatherlink.com 1.10,2013-08-12 02:55:00,
2013-08-11 23:10:00,76.0,68.0,30.03,ENE,75,0.0,0.0,77,0.00,,,0.00,weatherlink.com 1.10,2013-08-12 03:10:00,
2013-08-11 23:25:00,75.6,69.0,30.03,ENE,75,0.0,0.0,79,0.00,,,0.00,weatherlink.com 1.10,2013-08-12 03:25:00,
2013-08-11 23:40:00,75.3,68.0,30.03,ENE,75,0.0,0.0,79,0.00,,,0.00,weatherlink.com 1.10,2013-08-12 03:40:00,
2013-08-11 23:55:00,75.2,69.0,30.03,ENE,75,0.0,0.0,80,0.00,,,0.00,weatherlink.com 1.10,2013-08-12 03:55:00,